EW2027 Weather Reports


time (UTC)temp
F
wind
direction
speed
knots
gust
knots
rain 1hr
in
rain 24hr
in
rain mn
in
humidity
%
barometer
mb
20260506003703 50 82 1.7 2.6 0.00 0.00 0.00 82 1013.2
20260506000704 50 78 1.7 2.6 0.00 0.00 0.00 79 1013.1
20260505233703 51 347 1.7 4.3 0.00 0.00 0.00 75 1012.8
20260505233204 51 328 2.6 10.4 0.00 0.00 0.00 75 1012.7
20260505230703 52 7 2.6 7.8 0.00 0.00 0.00 73 1012.5
20260505230203 52 19 2.6 13.9 0.00 0.00 0.00 73 1012.4
20260505223704 52 2 3.5 7.8 0.00 0.00 0.00 72 1012.1
20260505223204 53 43 5.2 19.1 0.00 0.00 0.00 72 1012.1
20260505220703 53 31 2.6 7.8 0.00 0.00 0.00 71 1011.7
20260505220204 53 20 1.7 11.3 0.00 0.00 0.00 70 1011.5
20260505213703 54 358 4.3 12.2 0.00 0.00 0.00 68 1011.4
20260505213203 54 15 3.5 10.4 0.00 0.00 0.00 68 1011.5
20260505210203 54 20 3.5 10.4 0.00 0.00 0.00 70 1011.1
20260505203703 54 27 3.5 13.9 0.00 0.00 0.00 70 1011.1
20260505203203 54 346 3.5 12.2 0.00 0.00 0.00 70 1011.0
20260505200704 54 296 1.7 8.7 0.00 0.00 0.00 71 1011.0
20260505193203 54 62 1.7 13.9 0.00 0.00 0.00 72 1011.4
20260505190204 55 350 3.5 10.4 0.00 0.00 0.00 71 1010.7
20260505183704 55 22 2.6 7.8 0.00 0.00 0.00 73 1010.4
20260505180203 55 334 3.5 14.8 0.00 0.00 0.00 77 1010.1
20260505173703 55 27 2.6 7.0 0.00 0.00 0.00 77 1009.9
20260505173203 55 33 4.3 14.8 0.00 0.00 0.00 77 1009.9
20260505170703 55 27 3.5 13.9 0.00 0.00 0.00 76 1009.6
20260505170203 55 355 4.3 12.2 0.00 0.00 0.00 77 1009.3
20260505163704 55 53 2.6 8.7 0.00 0.00 0.00 78 1008.9
20260505160703 56 17 2.6 10.4 0.00 0.00 0.00 79 1007.9
20260505160204 56 346 4.3 13.9 0.00 0.00 0.00 79 1007.9
20260505153203 56 22 4.3 12.2 0.00 0.00 0.00 80 1007.3
20260505150704 58 19 5.2 11.3 0.00 0.00 0.00 80 1007.1
20260505150204 58 351 5.2 20.0 0.00 0.00 0.00 79 1006.9
20260505140204 65 15 2.6 8.7 0.00 0.00 0.00 79 1005.4
20260505130204 66 118 0.9 7.8 0.00 0.00 0.00 81 1004.4
20260505123704 66 109 1.7 2.6 0.00 0.00 0.00 81 1004.3
20260505123204 66 95 3.5 11.3 0.00 0.00 0.00 81 1004.2
20260505120703 65 133 3.5 10.4 0.00 0.00 0.00 82 1003.7
20260505120204 65 108 3.5 10.4 0.00 0.00 0.00 82 1003.7
20260505113703 65 10 1.7 7.8 0.00 0.00 0.00 82 1003.5
20260505110704 65 48 2.6 4.3 0.00 0.00 0.00 82 1003.1
20260505110203 65 74 0.9 7.8 0.00 0.00 0.00 82 1003.3
20260505100704 66 116 0.9 2.6 0.00 0.00 0.00 82 1002.4
20260505093704 67 114 2.6 6.1 0.00 0.00 0.00 81 1001.7
20260505093203 67 122 4.3 10.4 0.00 0.00 0.00 81 1001.6
20260505090703 68 106 5.2 10.4 0.00 0.00 0.00 80 1001.7
20260505090204 68 105 2.6 8.7 0.00 0.00 0.00 80 1001.8
20260505083704 69 135 4.3 7.8 0.00 0.00 0.00 79 1001.9
20260505083203 69 92 3.5 8.7 0.00 0.00 0.00 79 1002.1
20260505080703 69 122 2.6 6.1 0.00 0.00 0.00 78 1002.1
20260505080204 70 96 1.7 7.0 0.00 0.00 0.00 78 1002.3
20260505073703 70 134 2.6 5.2 0.00 0.00 0.00 77 1002.3
20260505070703 71 160 2.6 6.1 0.00 0.00 0.00 75 1002.6
20260505070203 71 141 4.3 7.8 0.00 0.00 0.00 76 1002.7
20260505063704 72 89 0.9 2.6 0.00 0.00 0.00 74 1002.9
20260505063204 72 71 0.9 10.4 0.00 0.00 0.00 74 1002.8
20260505060704 72 179 2.6 7.8 0.00 0.00 0.00 73 1002.5
20260505060204 72 175 3.5 12.2 0.00 0.00 0.00 73 1002.5
20260505053703 73 170 5.2 15.6 0.00 0.00 0.00 73 1002.5
20260505050704 73 163 5.2 10.4 0.00 0.00 0.00 72 1002.7
20260505050204 73 168 3.5 11.3 0.00 0.00 0.00 72 1002.8
20260505040704 74 177 6.1 11.3 0.00 0.00 0.00 71 1003.2
20260505040203 74 177 4.3 12.2 0.00 0.00 0.00 71 1003.3
20260505033703 74 171 4.3 10.4 0.00 0.00 0.00 70 1003.3
20260505033203 74 151 5.2 12.2 0.00 0.00 0.00 70 1003.3
20260505030204 74 144 6.1 13.9 0.00 0.00 0.00 69 1003.7
20260505020704 75 142 4.3 7.0 0.00 0.00 0.00 69 1003.3
20260505020204 75 130 4.3 10.4 0.00 0.00 0.00 69 1003.3
20260505013203 76 126 5.2 10.4 0.00 0.00 0.00 67 1003.5
20260505010704 76 129 6.1 10.4 0.00 0.00 0.00 66 1003.5
20260505010203 77 132 4.3 10.4 0.00 0.00 0.00 65 1003.5